MST,Max TemperatureF,Mean TemperatureF,Min TemperatureF,Max Dew PointF,MeanDew PointF,Min DewpointF,Max Humidity, Mean Humidity, Min Humidity, Max Sea Level PressureIn, Mean Sea Level PressureIn, Min Sea Level PressureIn, Max VisibilityMiles, Mean VisibilityMiles, Min VisibilityMiles, Max Wind SpeedMPH, Mean Wind SpeedMPH, Max Gust SpeedMPH,PrecipitationIn, CloudCover, Events, WindDirDegrees
2012-2-1,45,36,27,23,17,14,69,50,31,30.11,30.05,29.99,10,10,10,17,11,24,0.00,3,,232
2012-2-2,42,34,26,28,22,16,75,55,34,30.48,30.29,30.09,10,10,10,22,10,26,0.00,5,,334
2012-2-3,39,30,21,23,21,17,88,70,52,30.59,30.52,30.41,10,10,10,8,3,10,0.00,0,,150
2012-2-4,43,31,18,22,19,16,88,64,39,30.54,30.47,30.39,10,10,10,17,7,20,0.00,0,,215
2012-2-5,48,36,24,17,15,11,68,46,23,30.38,30.29,30.15,10,10,10,23,13,26,0.00,0,,233
2012-2-6,30,26,21,25,20,14,96,75,53,30.58,30.44,30.25,10,9,4,17,9,25,0.01,6,Snow,26
2012-2-7,24,22,19,22,19,16,100,92,84,30.57,30.41,30.22,9,5,1,18,9,30,0.07,8,Snow,48
2012-2-8,35,25,14,22,18,12,100,77,54,30.37,30.25,30.17,10,7,2,23,10,26,0.03,4,Fog-Snow,270
2012-2-9,45,34,23,28,23,15,70,55,40,30.30,30.23,30.16,10,10,10,24,15,32,0.00,5,,326
2012-2-10,23,14,4,16,9,-7,96,78,60,30.60,30.42,30.22,10,7,1,21,12,24,0.04,7,Snow,44
2012-2-11,18,10,2,9,2,-6,84,72,60,30.60,30.44,30.22,10,10,10,10,4,13,0.00,4,,7
2012-2-12,42,26,9,25,16,6,91,70,49,30.19,29.95,29.80,10,10,10,21,13,24,0.00,1,,227
2012-2-13,47,38,29,25,21,16,75,53,31,29.81,29.77,29.74,10,10,10,22,14,29,0.00,6,,260
2012-2-14,41,33,25,23,19,14,68,53,37,29.95,29.80,29.70,10,10,10,28,10,32,0.00,5,,267
2012-2-15,38,28,17,18,15,10,84,58,32,30.22,30.11,29.95,10,10,10,17,10,21,0.00,2,,258
2012-2-16,45,33,20,16,12,7,68,44,20,30.22,30.12,30.06,10,10,10,29,13,36,0.00,3,,257
2012-2-17,41,36,30,27,24,20,85,63,40,30.21,30.13,30.00,10,10,10,20,7,23,0.00,6,,261
2012-2-18,50,38,26,28,21,14,85,55,24,30.06,29.90,29.81,10,10,9,29,12,36,T,3,Snow,252
2012-2-19,42,35,27,27,16,8,85,56,27,29.91,29.86,29.78,10,10,10,16,10,21,T,2,,265
2012-2-20,39,29,19,24,14,9,67,50,32,29.93,29.90,29.86,10,10,8,29,12,36,T,4,Snow,249
2012-2-21,49,39,28,33,26,18,92,65,38,29.88,29.72,29.60,10,9,2,33,17,41,0.01,6,Snow,249
2012-2-22,52,42,31,37,30,19,76,63,50,29.69,29.50,29.31,10,10,9,49,19,67,0.01,7,Rain-Snow,303
2012-2-23,40,34,27,26,20,14,69,55,40,30.12,29.95,29.72,10,8,1,35,17,39,0.01,6,Snow,307
2012-2-24,41,34,26,18,15,12,63,48,33,30.25,30.12,29.90,10,10,10,22,9,26,0.00,4,,293
2012-2-25,51,37,23,28,21,14,82,56,29,29.86,29.55,29.33,10,8,1,43,15,52,T,5,Snow,294
2012-2-26,28,21,14,16,12,10,84,70,55,30.27,30.09,29.79,10,8,1,25,11,30,0.03,5,Snow,39
2012-2-27,35,23,11,18,13,8,92,70,47,30.25,30.11,30.00,10,10,10,9,4,12,0.00,0,,17
2012-2-28,30,23,15,27,21,12,96,77,58,29.97,29.89,29.80,10,6,0,16,6,20,0.03,6,Fog-Snow,242
2012-2-29,48,33,17,25,19,14,92,59,26,29.91,29.73,29.59,10,10,10,31,15,37,T,3,,241